Back to catalog

STARLINK-30704

AliveCommunicationsVLEO
NORAD 57946·PAYLOAD·🇺🇸 United States

Launched Sep 25, 2023 from Vandenberg Space Force Base

Loading…

Next Passes (next 24 hours)

TLE

FreshSource: CelesTrak SupGP

Epoch: Sep 14, 2026, 21:11 UTC

1 57946C 23148M   26257.88312500  .00012395  00000+0  36625-3 0  2579
2 57946  53.1584 299.6257 0001104  93.0474  28.0389 15.34380146    18

Track STARLINK-30704 in real time with AllMySat

Download on the App Store